Location: Stavanger
(58.9670°N, 5.7500°E)
Time: 08:49:12
(UTC+01:00)

ISS - Visible Passes

Search period start: 25 November 2017 00:00
Search period end: 05 December 2017 00:00
Orbit: 401 x 407 km, 51.6° (Epoch: 25 November)

Date Brightness Start Highest point End Pass type
(mag) Time Alt. Az. Time Alt. Az. Time Alt. Az.
01 Dec -1.1 18:51:49 10° SSW 18:52:28 12° S 18:52:28 12° S visible
02 Dec -1.3 18:00:26 10° S 18:01:35 11° SSE 18:02:09 11° SE visible
02 Dec -0.6 19:34:39 10° SW 19:34:47 11° SW 19:34:47 11° SW visible
03 Dec -1.7 18:42:35 10° SSW 18:44:26 18° S 18:44:26 18° S visible
04 Dec -1.6 17:50:40 10° SSW 17:52:45 16° SSE 17:54:02 13° SE visible
04 Dec -1.0 19:25:49 10° SW 19:26:40 15° SW 19:26:40 15° SW visible
